Terminal Aerodrome Forecast
Issued by NWS Boise, ID

Home | Current Version | Previous Version | Text Only | Print | Product List | Glossary On
Versions: 1 2 3 4 5 6 7 8 9 10 11 12 13 14 15 16 17 18 19
000
FTUS45 KBOI 250520
TAFBNO
TAF
KBNO 250520Z 2506/2606 VRB03KT P6SM VCSH BKN070
     FM250800 25007KT P6SM -RA OVC040
     FM252200 29015KT P6SM -SHRA BKN050 OVC100
     FM260300 31010KT P6SM VCSH SCT050 BKN100=

USA.gov is the U.S. government's official web portal to all federal, state and local government web resources and services.